StationID,Date,MaxTemp,MinTemp,Precipitation,Snowfall,SnowDepth
"CA1BC000011","1998-06-17",,,0.00,0.00,0.00
"CA1BC000011","2015-04-13",,,0.00,0.00,
"CA1BC000011","2015-04-14",,,5.00,,
"CA1BC000011","2015-04-15",,,0.00,0.00,0.00
"CA1BC000011","2015-04-16",,,0.00,0.00,0.00
"CA1BC000011","2015-04-17",,,5.00,0.00,0.00
"CA1BC000011","2015-04-18",,,0.00,0.00,0.00
"CA1BC000011","2015-04-19",,,0.00,0.00,0.00
"CA1BC000011","2015-04-20",,,0.00,0.00,0.00
"CA1BC000011","2015-04-21",,,0.00,0.00,0.00
"CA1BC000011","2015-04-22",,,97.00,0.00,0.00
"CA1BC000011","2015-04-23",,,0.00,0.00,0.00
"CA1BC000011","2015-04-24",,,10.00,0.00,0.00
"CA1BC000011","2015-04-25",,,36.00,0.00,0.00
"CA1BC000011","2015-04-26",,,0.00,0.00,0.00
"CA1BC000011","2015-04-27",,,0.00,0.00,0.00
"CA1BC000011","2015-04-28",,,5.00,0.00,0.00
"CA1BC000011","2015-04-29",,,20.00,0.00,0.00
"CA1BC000011","2015-04-30",,,23.00,0.00,0.00
"CA1BC000011","2015-05-01",,,8.00,0.00,0.00
"CA1BC000011","2015-05-02",,,10.00,0.00,0.00
"CA1BC000011","2015-05-03",,,0.00,0.00,0.00
"CA1BC000011","2015-05-04",,,0.00,0.00,0.00
"CA1BC000011","2015-05-05",,,13.00,0.00,0.00
"CA1BC000011","2015-05-06",,,0.00,0.00,0.00
"CA1BC000011","2015-05-07",,,0.00,0.00,0.00
"CA1BC000011","2015-05-08",,,0.00,0.00,0.00
"CA1BC000011","2015-05-09",,,0.00,0.00,0.00
"CA1BC000011","2015-05-10",,,0.00,0.00,0.00
"CA1BC000011","2015-05-12",,,0.00,0.00,0.00
"CA1BC000011","2015-05-13",,,0.00,0.00,0.00
"CA1BC000011","2015-05-14",,,0.00,0.00,0.00
"CA1BC000011","2015-05-15",,,0.00,0.00,0.00
"CA1BC000011","2015-05-16",,,0.00,0.00,0.00
"CA1BC000011","2015-05-17",,,0.00,0.00,0.00
"CA1BC000011","2015-05-18",,,0.00,0.00,0.00
"CA1BC000011","2015-05-19",,,0.00,0.00,0.00
"CA1BC000011","2015-05-20",,,0.00,0.00,0.00
"CA1BC000011","2015-05-21",,,0.00,0.00,0.00
"CA1BC000011","2015-05-22",,,0.00,0.00,0.00
"CA1BC000011","2015-05-23",,,20.00,0.00,0.00
"CA1BC000011","2015-05-24",,,147.00,0.00,0.00
"CA1BC000011","2015-05-25",,,61.00,0.00,0.00
"CA1BC000011","2015-05-26",,,0.00,0.00,0.00
"CA1BC000011","2015-05-27",,,0.00,0.00,0.00
"CA1BC000011","2015-05-28",,,0.00,0.00,0.00
"CA1BC000011","2015-05-29",,,0.00,0.00,0.00
"CA1BC000011","2015-05-30",,,180.00,0.00,0.00
"CA1BC000011","2015-05-31",,,5.00,0.00,0.00
"CA1BC000011","2015-06-01",,,0.00,0.00,0.00
"CA1BC000011","2015-06-02",,,0.00,0.00,0.00
"CA1BC000011","2015-06-03",,,74.00,0.00,0.00
"CA1BC000011","2015-06-04",,,0.00,0.00,0.00
"CA1BC000011","2015-06-05",,,0.00,0.00,0.00
"CA1BC000011","2015-06-06",,,0.00,0.00,0.00
"CA1BC000011","2015-06-07",,,0.00,0.00,0.00
"CA1BC000011","2015-06-08",,,0.00,0.00,0.00
"CA1BC000011","2015-06-09",,,0.00,0.00,0.00
"CA1BC000011","2015-06-10",,,0.00,0.00,0.00
"CA1BC000011","2015-06-11",,,0.00,0.00,0.00
"CA1BC000011","2015-06-12",,,0.00,0.00,0.00
"CA1BC000011","2015-06-13",,,3.00,0.00,0.00
"CA1BC000011","2015-06-14",,,79.00,0.00,0.00
"CA1BC000011","2015-06-15",,,0.00,0.00,0.00
"CA1BC000011","2015-06-16",,,0.00,0.00,0.00
"CA1BC000011","2015-06-17",,,0.00,0.00,0.00
"CA1BC000011","2015-06-18",,,84.00,0.00,0.00
"CA1BC000011","2015-06-19",,,119.00,0.00,0.00
"CA1BC000011","2015-06-20",,,109.00,0.00,0.00
"CA1BC000011","2015-06-21",,,8.00,0.00,0.00
"CA1BC000011","2015-06-23",,,0.00,0.00,0.00
"CA1BC000011","2015-06-24",,,0.00,0.00,0.00
"CA1BC000011","2015-06-25",,,0.00,0.00,0.00
"CA1BC000011","2015-06-26",,,5.00,0.00,0.00
"CA1BC000011","2015-06-27",,,0.00,0.00,0.00
"CA1BC000011","2015-06-28",,,0.00,0.00,0.00
"CA1BC000011","2015-06-29",,,0.00,0.00,0.00
"CA1BC000011","2015-06-30",,,0.00,0.00,0.00
"CA1BC000011","2015-07-01",,,15.00,0.00,0.00
"CA1BC000011","2015-07-02",,,0.00,0.00,0.00
"CA1BC000011","2015-07-08",,,,,0.00
"CA1BC000011","2015-07-09",,,0.00,0.00,0.00
"CA1BC000011","2015-07-10",,,0.00,0.00,0.00
"CA1BC000011","2015-07-11",,,5.00,0.00,0.00
"CA1BC000011","2015-07-12",,,76.00,0.00,0.00
"CA1BC000011","2015-07-13",,,99.00,0.00,0.00
"CA1BC000011","2015-07-14",,,51.00,0.00,0.00
"CA1BC000011","2015-07-15",,,25.00,0.00,0.00
"CA1BC000011","2015-07-16",,,109.00,0.00,0.00
"CA1BC000011","2015-07-17",,,5.00,0.00,0.00
"CA1BC000011","2015-07-18",,,0.00,0.00,0.00
"CA1BC000011","2015-07-26",,,,,0.00
"CA1BC000011","2015-07-27",,,5.00,0.00,0.00
"CA1BC000011","2015-07-28",,,0.00,0.00,0.00
"CA1BC000011","2015-07-29",,,48.00,0.00,0.00
"CA1BC000011","2015-07-30",,,5.00,0.00,0.00
"CA1BC000011","2015-07-31",,,0.00,0.00,0.00
"CA1BC000011","2015-08-01",,,0.00,0.00,0.00
"CA1BC000011","2015-08-02",,,0.00,0.00,0.00
"CA1BC000011","2015-08-03",,,53.00,0.00,0.00
"CA1BC000011","2015-08-04",,,71.00,0.00,0.00
"CA1BC000011","2015-08-05",,,0.00,0.00,0.00
"CA1BC000011","2015-08-06",,,28.00,0.00,0.00
"CA1BC000011","2015-08-07",,,10.00,0.00,0.00
"CA1BC000011","2015-08-08",,,76.00,0.00,0.00
"CA1BC000011","2015-08-09",,,74.00,0.00,0.00
"CA1BC000011","2015-08-10",,,15.00,0.00,0.00
"CA1BC000011","2015-08-11",,,0.00,0.00,0.00
"CA1BC000011","2015-08-12",,,0.00,0.00,0.00
"CA1BC000011","2015-08-13",,,0.00,0.00,0.00
"CA1BC000011","2015-08-14",,,71.00,0.00,0.00
"CA1BC000011","2015-08-15",,,0.00,0.00,0.00
"CA1BC000011","2015-08-17",,,,,0.00
"CA1BC000011","2015-08-18",,,0.00,0.00,0.00
"CA1BC000011","2015-08-19",,,0.00,0.00,0.00
"CA1BC000011","2015-08-20",,,0.00,0.00,0.00
"CA1BC000011","2015-08-21",,,30.00,0.00,0.00
"CA1BC000011","2015-08-22",,,0.00,0.00,
"CA1BC000011","2015-08-23",,,0.00,0.00,0.00
"CA1BC000011","2015-08-24",,,0.00,0.00,0.00
"CA1BC000011","2015-08-25",,,0.00,0.00,0.00
"CA1BC000011","2015-08-26",,,0.00,0.00,0.00
"CA1BC000011","2015-08-27",,,0.00,0.00,0.00
"CA1BC000011","2015-08-28",,,0.00,0.00,0.00
"CA1BC000011","2015-08-29",,,8.00,0.00,0.00
"CA1BC000011","2015-08-30",,,25.00,0.00,0.00
"CA1BC000011","2015-08-31",,,5.00,0.00,0.00
"CA1BC000011","2015-09-01",,,18.00,0.00,0.00
"CA1BC000011","2015-09-02",,,71.00,0.00,0.00
"CA1BC000011","2015-09-03",,,20.00,0.00,0.00
"CA1BC000011","2015-09-04",,,10.00,,
"CA1BC000011","2015-09-05",,,0.00,0.00,0.00
"CA1BC000011","2015-09-14",,,,,0.00
"CA1BC000011","2015-09-15",,,0.00,0.00,0.00
"CA1BC000011","2015-09-16",,,0.00,0.00,0.00
"CA1BC000011","2015-09-17",,,5.00,0.00,0.00
"CA1BC000011","2015-09-18",,,23.00,0.00,0.00
"CA1BC000011","2015-09-19",,,99.00,0.00,0.00
"CA1BC000011","2015-09-20",,,5.00,0.00,0.00
"CA1BC000011","2015-09-21",,,43.00,0.00,0.00
"CA1BC000011","2015-09-22",,,0.00,0.00,0.00
"CA1BC000011","2015-09-23",,,0.00,0.00,0.00
"CA1BC000011","2015-09-24",,,13.00,0.00,0.00
"CA1BC000011","2015-09-25",,,5.00,0.00,0.00
"CA1BC000011","2015-09-26",,,0.00,0.00,0.00
"CA1BC000011","2015-09-27",,,0.00,0.00,0.00
"CA1BC000011","2015-09-28",,,0.00,0.00,0.00
"CA1BC000011","2015-09-29",,,0.00,0.00,0.00
"CA1BC000011","2015-09-30",,,0.00,0.00,0.00
"CA1BC000011","2015-10-05",,,,,0.00
"CA1BC000011","2015-10-06",,,0.00,0.00,0.00
"CA1BC000011","2015-10-07",,,0.00,0.00,0.00
"CA1BC000011","2015-10-08",,,0.00,0.00,0.00
"CA1BC000011","2015-10-09",,,28.00,0.00,0.00
"CA1BC000011","2015-10-10",,,25.00,0.00,0.00
"CA1BC000011","2015-10-11",,,135.00,0.00,0.00
"CA1BC000011","2015-10-12",,,5.00,0.00,0.00
"CA1BC000011","2015-10-13",,,0.00,0.00,0.00
"CA1BC000011","2015-10-14",,,5.00,0.00,0.00
"CA1BC000011","2015-10-15",,,0.00,0.00,0.00
"CA1BC000011","2015-10-16",,,0.00,0.00,0.00
"CA1BC000011","2015-10-17",,,0.00,0.00,0.00
"CA1BC000011","2015-10-18",,,10.00,0.00,0.00
"CA1BC000011","2015-10-19",,,3.00,0.00,0.00
"CA1BC000011","2015-10-20",,,25.00,0.00,0.00
"CA1BC000011","2015-10-21",,,3.00,0.00,0.00
"CA1BC000011","2015-10-22",,,10.00,0.00,0.00
"CA1BC000011","2015-10-23",,,0.00,0.00,0.00
"CA1BC000011","2015-10-24",,,51.00,0.00,0.00
"CA1BC000011","2015-10-25",,,0.00,0.00,0.00
"CA1BC000011","2015-10-26",,,10.00,41.00,41.00
"CA1BC000011","2015-10-27",,,0.00,0.00,0.00
"CA1BC000011","2015-10-28",,,0.00,0.00,0.00
"CA1BC000011","2015-10-29",,,36.00,0.00,0.00
"CA1BC000011","2015-10-30",,,56.00,0.00,0.00
"CA1BC000011","2015-10-31",,,0.00,0.00,0.00
"CA1BC000011","2015-11-01",,,66.00,0.00,0.00
"CA1BC000011","2015-11-02",,,51.00,0.00,0.00
"CA1BC000011","2015-11-03",,,13.00,10.00,13.00
"CA1BC000011","2015-11-04",,,0.00,0.00,0.00
"CA1BC000011","2015-11-05",,,0.00,0.00,0.00
"CA1BC000011","2015-11-06",,,0.00,0.00,0.00
"CA1BC000011","2015-11-07",,,89.00,0.00,0.00
"CA1BC000011","2015-11-08",,,0.00,0.00,0.00
"CA1BC000011","2015-11-09",,,0.00,0.00,
"CA1BC000011","2015-11-10",,,0.00,0.00,0.00
"CA1BC000011","2015-11-11",,,0.00,0.00,0.00
"CA1BC000011","2015-11-12",,,0.00,0.00,0.00
"CA1BC000011","2015-11-13",,,41.00,20.00,20.00
"CA1BC000011","2015-11-14",,,0.00,0.00,20.00
"CA1BC000011","2015-11-15",,,0.00,0.00,0.00
"CA1BC000011","2015-11-16",,,0.00,0.00,0.00
"CA1BC000011","2015-11-17",,,8.00,10.00,10.00
"CA1BC000011","2015-11-18",,,0.00,0.00,
"CA1BC000011","2015-11-19",,,0.00,0.00,10.00
"CA1BC000011","2015-11-20",,,0.00,0.00,0.00
"CA1BC000011","2015-11-21",,,0.00,0.00,20.00
"CA1BC000011","2015-11-22",,,0.00,0.00,10.00
"CA1BC000011","2015-11-23",,,0.00,0.00,20.00
"CA1BC000011","2015-11-24",,,0.00,0.00,20.00
"CA1BC000011","2015-11-25",,,0.00,0.00,20.00
"CA1BC000011","2015-11-26",,,0.00,0.00,20.00
"CA1BC000011","2015-11-27",,,0.00,0.00,20.00
"CA1BC000011","2015-11-28",,,0.00,0.00,20.00
"CA1BC000011","2015-11-29",,,0.00,0.00,20.00
"CA1BC000011","2015-11-30",,,0.00,0.00,20.00
"CA1BC000011","2015-12-01",,,0.00,0.00,20.00
"CA1BC000011","2015-12-02",,,0.00,0.00,20.00
"CA1BC000011","2015-12-03",,,10.00,0.00,0.00
"CA1BC000011","2015-12-04",,,13.00,0.00,0.00
"CA1BC000011","2015-12-05",,,0.00,0.00,
"CA1BC000011","2015-12-06",,,0.00,0.00,0.00
"CA1BC000011","2015-12-07",,,0.00,0.00,0.00
"CA1BC000011","2015-12-08",,,0.00,0.00,0.00
"CA1BC000011","2015-12-09",,,71.00,10.00,10.00
"CA1BC000011","2015-12-10",,,51.00,99.00,99.00
"CA1BC000011","2015-12-11",,,20.00,20.00,124.00
"CA1BC000011","2015-12-12",,,10.00,10.00,99.00
"CA1BC000011","2015-12-13",,,10.00,5.00,99.00
"CA1BC000011","2015-12-14",,,23.00,20.00,109.00
"CA1BC000011","2015-12-15",,,48.00,66.00,165.00
"CA1BC000011","2015-12-16",,,0.00,0.00,130.00
"CA1BC000011","2015-12-17",,,0.00,0.00,124.00
"CA1BC000011","2015-12-18",,,41.00,30.00,160.00
"CA1BC000011","2015-12-19",,,76.00,99.00,236.00
"CA1BC000011","2015-12-20",,,18.00,25.00,254.00
"CA1BC000011","2015-12-21",,,0.00,0.00,249.00
"CA1BC000011","2015-12-22",,,15.00,20.00,231.00
"CA1BC000011","2015-12-23",,,5.00,15.00,231.00
"CA1BC000011","2015-12-24",,,0.00,0.00,231.00
"CA1BC000011","2015-12-25",,,0.00,0.00,221.00
"CA1BC000011","2015-12-26",,,0.00,0.00,221.00
"CA1BC000011","2015-12-27",,,147.00,150.00,351.00
"CA1BC000011","2015-12-28",,,28.00,46.00,345.00
"CA1BC000011","2015-12-29",,,0.00,0.00,320.00
"CA1BC000011","2015-12-30",,,0.00,0.00,310.00
"CA1BC000011","2015-12-31",,,8.00,25.00,351.00
"CA1BC000011","2016-01-01",,,0.00,0.00,351.00
"CA1BC000011","2016-01-02",,,0.00,0.00,351.00
"CA1BC000011","2016-01-03",,,0.00,0.00,300.00
"CA1BC000011","2016-01-04",,,0.00,0.00,300.00
"CA1BC000011","2016-01-05",,,0.00,0.00,300.00
"CA1BC000011","2016-01-06",,,53.00,79.00,361.00
"CA1BC000011","2016-01-07",,,18.00,20.00,371.00
"CA1BC000011","2016-01-08",,,0.00,0.00,340.00
"CA1BC000011","2016-01-09",,,0.00,0.00,340.00
"CA1BC000011","2016-01-10",,,0.00,0.00,340.00
"CA1BC000011","2016-01-11",,,0.00,0.00,340.00
"CA1BC000011","2016-01-12",,,0.00,0.00,310.00
"CA1BC000011","2016-01-13",,,0.00,0.00,310.00
"CA1BC000011","2016-01-14",,,53.00,79.00,381.00
"CA1BC000011","2016-01-15",,,33.00,30.00,391.00
"CA1BC000011","2016-01-16",,,0.00,0.00,381.00
"CA1BC000011","2016-01-17",,,25.00,25.00,391.00
"CA1BC000011","2016-01-18",,,43.00,30.00,409.00
"CA1BC000011","2016-01-19",,,0.00,0.00,409.00
"CA1BC000011","2016-01-20",,,0.00,0.00,399.00
"CA1BC000011","2016-01-21",,,43.00,41.00,399.00
"CA1BC000011","2016-01-22",,,25.00,0.00,351.00
"CA1BC000011","2016-01-23",,,89.00,10.00,351.00
"CA1BC000011","2016-01-24",,,10.00,0.00,351.00
"CA1BC000011","2016-01-25",,,0.00,0.00,351.00
"CA1BC000011","2016-01-26",,,15.00,0.00,371.00
"CA1BC000011","2016-01-27",,,0.00,0.00,366.00
"CA1BC000011","2016-01-28",,,15.00,0.00,320.00
"CA1BC000011","2016-01-29",,,0.00,0.00,305.00
"CA1BC000011","2016-01-30",,,10.00,10.00,310.00
"CA1BC000011","2016-01-31",,,5.00,10.00,315.00
"CA1BC000011","2016-02-01",,,15.00,10.00,310.00
"CA1BC000011","2016-02-02",,,5.00,5.00,310.00
"CA1BC000011","2016-02-03",,,0.00,0.00,310.00
"CA1BC000011","2016-02-04",,,94.00,109.00,399.00
"CA1BC000011","2016-02-05",,,0.00,0.00,399.00
"CA1BC000011","2016-02-06",,,15.00,0.00,330.00
"CA1BC000011","2016-02-07",,,0.00,0.00,320.00
"CA1BC000011","2016-02-08",,,18.00,20.00,320.00
"CA1BC000011","2016-02-09",,,0.00,0.00,320.00
"CA1BC000011","2016-02-10",,,0.00,0.00,320.00
"CA1BC000011","2016-02-11",,,25.00,0.00,315.00
"CA1BC000011","2016-02-12",,,10.00,0.00,310.00
"CA1BC000011","2016-02-13",,,56.00,0.00,310.00
"CA1BC000011","2016-02-19",,,,,315.00
"CA1BC000011","2016-02-20",,,10.00,0.00,310.00
"CA1BC000011","2016-02-21",,,0.00,0.00,310.00
"CA1BC000011","2016-02-22",,,8.00,15.00,310.00
"CA1BC000011","2016-02-23",,,0.00,0.00,310.00
"CA1BC000011","2016-02-24",,,0.00,0.00,310.00
"CA1BC000011","2016-02-25",,,0.00,0.00,310.00
"CA1BC000011","2016-02-26",,,0.00,0.00,310.00
"CA1BC000011","2016-02-27",,,51.00,0.00,300.00
"CA1BC000011","2016-02-28",,,5.00,0.00,300.00
"CA1BC000011","2016-02-29",,,180.00,71.00,381.00
"CA1BC000011","2016-03-01",,,0.00,0.00,371.00
"CA1BC000011","2016-03-02",,,46.00,61.00,429.00
"CA1BC000011","2016-03-03",,,79.00,0.00,391.00
"CA1BC000011","2016-03-04",,,0.00,0.00,371.00
"CA1BC000011","2016-03-05",,,3.00,0.00,361.00
"CA1BC000011","2016-03-06",,,5.00,0.00,340.00
"CA1BC000011","2016-03-07",,,0.00,0.00,330.00
"CA1BC000011","2016-03-08",,,0.00,0.00,330.00
"CA1BC000011","2016-03-09",,,0.00,0.00,330.00
"CA1BC000011","2016-03-10",,,41.00,25.00,361.00
"CA1BC000011","2016-03-11",,,0.00,0.00,330.00
"CA1BC000011","2016-03-12",,,0.00,0.00,300.00
"CA1BC000011","2016-03-13",,,46.00,36.00,335.00
"CA1BC000011","2016-03-14",,,15.00,36.00,371.00
"CA1BC000011","2016-03-15",,,13.00,0.00,320.00
"CA1BC000011","2016-03-17",,,0.00,0.00,290.00
"CA1BC000011","2016-03-18",,,0.00,0.00,290.00
"CA1BC000011","2016-03-19",,,0.00,0.00,290.00
"CA1BC000011","2016-03-20",,,0.00,0.00,269.00
"CA1BC000011","2016-03-21",,,38.00,0.00,221.00
"CA1BC000011","2016-03-22",,,8.00,0.00,221.00
"CA1BC000011","2016-03-23",,,41.00,15.00,221.00
"CA1BC000011","2016-03-24",,,28.00,0.00,150.00
"CA1BC000011","2016-03-25",,,0.00,0.00,140.00
"CA1BC000011","2016-03-26",,,0.00,0.00,109.00
"CA1BC000011","2016-03-27",,,0.00,0.00,89.00
"CA1BC000011","2016-03-28",,,5.00,0.00,79.00
"CA1BC000011","2016-03-29",,,0.00,0.00,61.00
"CA1BC000011","2016-03-30",,,0.00,0.00,0.00
"CA1BC000011","2016-03-31",,,0.00,0.00,0.00
"CA1BC000011","2016-04-02",,,0.00,0.00,0.00
"CA1BC000011","2016-04-03",,,0.00,0.00,0.00
"CA1BC000011","2016-04-04",,,0.00,0.00,0.00
"CA1BC000011","2016-04-05",,,51.00,0.00,0.00
"CA1BC000011","2016-04-06",,,61.00,0.00,0.00
"CA1BC000011","2016-04-07",,,0.00,0.00,0.00
"CA1BC000011","2016-04-08",,,0.00,0.00,0.00
"CA1BC000011","2016-04-09",,,0.00,0.00,0.00
"CA1BC000011","2016-04-10",,,0.00,0.00,0.00
"CA1BC000011","2016-04-11",,,0.00,0.00,0.00
"CA1BC000011","2016-04-12",,,10.00,0.00,0.00
"CA1BC000011","2016-04-13",,,10.00,0.00,0.00
"CA1BC000011","2016-04-14",,,0.00,0.00,0.00
"CA1BC000011","2016-04-15",,,0.00,0.00,0.00
"CA1BC000011","2016-04-16",,,0.00,0.00,0.00
"CA1BC000011","2016-04-17",,,0.00,0.00,0.00
"CA1BC000011","2016-04-18",,,0.00,0.00,0.00
"CA1BC000011","2016-04-19",,,0.00,0.00,0.00
"CA1BC000011","2016-04-20",,,0.00,0.00,0.00
"CA1BC000011","2016-04-21",,,0.00,0.00,0.00
"CA1BC000011","2016-04-22",,,51.00,0.00,0.00
"CA1BC000011","2016-04-23",,,226.00,0.00,0.00
"CA1BC000011","2016-04-24",,,127.00,0.00,0.00
"CA1BC000011","2016-04-25",,,33.00,0.00,0.00
"CA1BC000011","2016-04-26",,,0.00,0.00,0.00
"CA1BC000011","2016-04-27",,,0.00,0.00,0.00
"CA1BC000011","2016-04-28",,,0.00,0.00,0.00
"CA1BC000011","2016-04-29",,,13.00,0.00,0.00
"CA1BC000011","2016-04-30",,,0.00,0.00,0.00
"CA1BC000011","2016-05-01",,,0.00,0.00,0.00
"CA1BC000011","2016-05-02",,,0.00,0.00,0.00
"CA1BC000011","2016-05-03",,,0.00,0.00,0.00
"CA1BC000011","2016-05-04",,,5.00,0.00,0.00
"CA1BC000011","2016-05-05",,,0.00,0.00,0.00
"CA1BC000011","2016-05-06",,,0.00,0.00,0.00
"CA1BC000011","2016-05-07",,,0.00,0.00,0.00
"CA1BC000011","2016-05-08",,,13.00,0.00,0.00
"CA1BC000011","2016-05-09",,,10.00,0.00,0.00
"CA1BC000011","2016-05-10",,,10.00,0.00,0.00
"CA1BC000011","2016-05-11",,,41.00,0.00,0.00
"CA1BC000011","2016-05-12",,,8.00,0.00,0.00
"CA1BC000011","2016-05-13",,,0.00,0.00,0.00
"CA1BC000011","2016-05-14",,,0.00,0.00,0.00
"CA1BC000011","2016-05-15",,,0.00,0.00,0.00
"CA1BC000011","2016-05-16",,,0.00,0.00,0.00
"CA1BC000011","2016-05-17",,,0.00,0.00,0.00
"CA1BC000011","2016-05-18",,,15.00,0.00,0.00
"CA1BC000011","2016-05-19",,,0.00,0.00,0.00
"CA1BC000011","2016-05-20",,,20.00,0.00,0.00
"CA1BC000011","2016-05-21",,,0.00,0.00,0.00
"CA1BC000011","2016-05-28",,,,,0.00
"CA1BC000011","2016-05-29",,,109.00,0.00,0.00
"CA1BC000011","2016-05-30",,,76.00,0.00,0.00
"CA1BC000011","2016-05-31",,,0.00,0.00,0.00
"CA1BC000011","2016-06-01",,,28.00,0.00,0.00
"CA1BC000011","2016-06-02",,,145.00,0.00,0.00
"CA1BC000011","2016-06-03",,,94.00,0.00,0.00
"CA1BC000011","2016-06-04",,,28.00,0.00,0.00
"CA1BC000011","2016-06-05",,,0.00,0.00,0.00
"CA1BC000011","2016-06-06",,,0.00,0.00,0.00
"CA1BC000011","2016-06-07",,,0.00,0.00,0.00
"CA1BC000011","2016-06-09",,,,,0.00
"CA1BC000011","2016-06-10",,,0.00,0.00,0.00
"CA1BC000011","2016-06-11",,,15.00,0.00,0.00
"CA1BC000011","2016-06-12",,,51.00,0.00,0.00
"CA1BC000011","2016-06-13",,,5.00,0.00,0.00
"CA1BC000011","2016-06-14",,,51.00,0.00,0.00
"CA1BC000011","2016-06-15",,,10.00,0.00,0.00
"CA1BC000011","2016-06-16",,,366.00,0.00,0.00
"CA1BC000011","2016-06-17",,,145.00,0.00,0.00
"CA1BC000011","2016-06-18",,,0.00,0.00,0.00
"CA1BC000011","2016-06-19",,,0.00,0.00,0.00
"CA1BC000011","2016-06-20",,,0.00,0.00,0.00
"CA1BC000011","2016-06-21",,,0.00,0.00,0.00
"CA1BC000011","2016-06-22",,,0.00,0.00,0.00
"CA1BC000011","2016-06-23",,,0.00,0.00,0.00
"CA1BC000011","2016-06-24",,,18.00,0.00,0.00
"CA1BC000011","2016-06-25",,,0.00,0.00,0.00
"CA1BC000011","2016-06-26",,,0.00,0.00,0.00
"CA1BC000011","2016-06-27",,,0.00,0.00,0.00
"CA1BC000011","2016-06-28",,,0.00,0.00,0.00
"CA1BC000011","2016-06-29",,,10.00,0.00,
"CA1BC000011","2016-06-30",,,56.00,0.00,0.00
"CA1BC000011","2016-07-01",,,0.00,0.00,0.00
"CA1BC000011","2016-07-02",,,81.00,0.00,0.00
"CA1BC000011","2016-07-03",,,203.00,0.00,0.00
"CA1BC000011","2016-07-04",,,206.00,0.00,0.00
"CA1BC000011","2016-07-05",,,231.00,0.00,0.00
"CA1BC000011","2016-07-06",,,15.00,0.00,0.00
"CA1BC000011","2016-07-07",,,0.00,0.00,0.00
"CA1BC000011","2016-07-08",,,33.00,0.00,0.00
"CA1BC000011","2016-07-09",,,145.00,0.00,0.00
"CA1BC000011","2016-07-10",,,10.00,0.00,0.00
"CA1BC000011","2016-07-11",,,0.00,0.00,0.00
"CA1BC000011","2016-07-12",,,0.00,0.00,0.00
"CA1BC000011","2016-07-13",,,79.00,0.00,0.00
"CA1BC000011","2016-07-14",,,122.00,0.00,0.00
"CA1BC000011","2016-07-15",,,109.00,0.00,0.00
"CA1BC000011","2016-07-17",,,0.00,0.00,0.00
"CA1BC000011","2016-07-19",,,0.00,0.00,0.00
"CA1BC000011","2016-07-20",,,15.00,0.00,0.00
"CA1BC000011","2016-07-21",,,0.00,0.00,0.00
"CA1BC000011","2016-07-22",,,0.00,0.00,0.00
"CA1BC000011","2016-07-23",,,0.00,0.00,0.00
"CA1BC000011","2016-07-24",,,0.00,0.00,0.00
"CA1BC000011","2016-07-25",,,20.00,0.00,0.00
"CA1BC000011","2016-07-26",,,0.00,0.00,0.00
"CA1BC000011","2016-07-27",,,0.00,0.00,0.00
"CA1BC000011","2016-07-28",,,0.00,0.00,0.00
"CA1BC000011","2016-07-29",,,0.00,0.00,0.00
"CA1BC000011","2016-07-30",,,0.00,0.00,0.00
"CA1BC000011","2016-07-31",,,10.00,0.00,0.00
"CA1BC000011","2016-08-01",,,0.00,0.00,0.00
"CA1BC000011","2016-08-03",,,36.00,0.00,0.00
"CA1BC000011","2016-08-04",,,0.00,0.00,0.00
"CA1BC000011","2016-08-05",,,18.00,0.00,0.00
"CA1BC000011","2016-08-06",,,15.00,0.00,0.00
"CA1BC000011","2016-08-07",,,30.00,0.00,0.00
"CA1BC000011","2016-08-08",,,0.00,0.00,0.00
"CA1BC000011","2016-08-09",,,8.00,0.00,0.00
"CA1BC000011","2016-08-10",,,0.00,0.00,0.00
"CA1BC000011","2016-08-12",,,,,0.00
"CA1BC000011","2016-08-13",,,0.00,0.00,0.00
"CA1BC000011","2016-08-14",,,5.00,0.00,0.00
"CA1BC000011","2016-08-15",,,0.00,0.00,0.00
"CA1BC000011","2016-08-16",,,15.00,0.00,0.00
"CA1BC000011","2016-08-17",,,0.00,0.00,0.00
"CA1BC000011","2016-08-18",,,0.00,0.00,0.00
"CA1BC000011","2016-08-19",,,0.00,0.00,0.00
"CA1BC000011","2016-08-20",,,0.00,0.00,0.00
"CA1BC000011","2016-08-21",,,5.00,0.00,0.00
"CA1BC000011","2016-08-22",,,132.00,0.00,0.00
"CA1BC000011","2016-08-23",,,38.00,0.00,0.00
"CA1BC000011","2016-08-24",,,0.00,0.00,0.00
"CA1BC000011","2016-08-25",,,0.00,0.00,0.00
"CA1BC000011","2016-08-26",,,0.00,0.00,0.00
"CA1BC000011","2016-08-27",,,30.00,0.00,0.00
"CA1BC000011","2016-08-30",,,,,0.00
"CA1BC000011","2016-08-31",,,0.00,0.00,0.00
"CA1BC000011","2016-09-01",,,48.00,0.00,0.00
"CA1BC000011","2016-09-02",,,23.00,0.00,0.00
"CA1BC000011","2016-09-03",,,64.00,0.00,0.00
"CA1BC000011","2016-09-04",,,3.00,0.00,0.00
"CA1BC000011","2016-09-06",,,5.00,0.00,0.00
"CA1BC000011","2016-09-07",,,51.00,0.00,0.00
"CA1BC000011","2016-09-08",,,81.00,0.00,0.00
"CA1BC000011","2016-09-09",,,36.00,0.00,0.00
"CA1BC000011","2016-09-10",,,99.00,0.00,0.00
"CA1BC000011","2016-09-11",,,15.00,0.00,0.00
"CA1BC000011","2016-09-12",,,0.00,0.00,
"CA1BC000011","2016-09-13",,,0.00,0.00,0.00
"CA1BC000011","2016-09-14",,,0.00,0.00,0.00
"CA1BC000011","2016-09-15",,,0.00,0.00,0.00
"CA1BC000011","2016-09-16",,,0.00,0.00,0.00
"CA1BC000011","2016-09-17",,,127.00,0.00,0.00
"CA1BC000011","2016-09-18",,,51.00,0.00,0.00
"CA1BC000011","2016-09-19",,,89.00,0.00,0.00
"CA1BC000011","2016-09-20",,,53.00,0.00,0.00
"CA1BC000011","2016-09-21",,,0.00,0.00,0.00
"CA1BC000011","2016-09-22",,,0.00,0.00,0.00
"CA1BC000011","2016-09-23",,,0.00,0.00,0.00
"CA1BC000011","2016-09-24",,,46.00,0.00,0.00
"CA1BC000011","2016-09-25",,,23.00,0.00,0.00
"CA1BC000011","2016-09-26",,,43.00,0.00,0.00
"CA1BC000011","2016-09-27",,,28.00,0.00,0.00
"CA1BC000011","2016-09-28",,,0.00,0.00,0.00
"CA1BC000011","2016-09-29",,,0.00,0.00,0.00
"CA1BC000011","2016-09-30",,,0.00,0.00,0.00
"CA1BC000011","2016-10-01",,,0.00,0.00,0.00
"CA1BC000011","2016-10-02",,,5.00,0.00,0.00
"CA1BC000011","2016-10-03",,,0.00,0.00,0.00
"CA1BC000011","2016-10-04",,,0.00,0.00,0.00
"CA1BC000011","2016-10-06",,,13.00,0.00,0.00
"CA1BC000011","2016-10-07",,,53.00,0.00,0.00
"CA1BC000011","2016-10-08",,,99.00,10.00,0.00
"CA1BC000011","2016-10-09",,,0.00,0.00,
"CA1BC000011","2016-10-10",,,0.00,0.00,0.00
"CA1BC000011","2016-10-11",,,0.00,0.00,0.00
"CA1BC000011","2016-10-13",,,25.00,0.00,0.00
"CA1BC000011","2016-10-14",,,51.00,0.00,0.00
"CA1BC000011","2016-10-15",,,135.00,119.00,119.00
"CA1BC000011","2016-10-16",,,163.00,0.00,
"CA1BC000011","2016-10-17",,,46.00,0.00,20.00
"CA1BC000011","2016-10-18",,,0.00,0.00,0.00
"CA1BC000011","2016-10-20",,,,,0.00
"CA1BC000011","2016-10-22",,,8.00,0.00,0.00
"CA1BC000011","2016-10-23",,,0.00,0.00,0.00
"CA1BC000011","2016-10-24",,,0.00,0.00,0.00
"CA1BC000011","2016-10-25",,,0.00,0.00,0.00
"CA1BC000011","2016-10-26",,,0.00,0.00,0.00
"CA1BC000011","2016-10-27",,,33.00,0.00,0.00
"CA1BC000011","2016-10-28",,,33.00,0.00,0.00
"CA1BC000011","2016-10-29",,,0.00,0.00,0.00
"CA1BC000011","2016-10-30",,,109.00,0.00,0.00
"CA1BC000011","2016-10-31",,,0.00,0.00,0.00
"CA1BC000011","2016-11-01",,,10.00,0.00,0.00
"CA1BC000011","2016-11-02",,,5.00,0.00,0.00
"CA1BC000011","2016-11-03",,,0.00,0.00,0.00
"CA1BC000011","2016-11-05",,,0.00,0.00,0.00
"CA1BC000011","2016-11-06",,,0.00,0.00,0.00
"CA1BC000011","2016-11-07",,,5.00,0.00,0.00
"CA1BC000011","2016-11-08",,,0.00,0.00,0.00